Regional Weather Roundup
Issued by NWS San Angelo, TX

Home | Current Version | Previous Version | Text Only | Print | Product List | Glossary On
Versions: 1 2 3 4 5 6 7 8 9 10 11 12 13 14 15 16 17 18 19 20 21 22 23 24 25 26 27 28 29 30 31 32 33 34 35 36 37 38 39 40 41 42 43 44 45 46 47 48 49 50
000
ASUS44 KSJT 030658
RWRSJT
WEST CENTRAL TEXAS REGIONAL WEATHER ROUNDUP
NATIONAL WEATHER SERVICE SAN ANGELO TX
200 AM CDT MON AUG 03 2015

NOTE: "FAIR" INDICATES FEW OR NO CLOUDS BELOW 12,000 FEET WITH NO
SIGNIFICANT WEATHER AND/OR OBSTRUCTIONS TO VISIBILITY.

TXZ049-054-064>066-071>073-076>078-098-099-113-114-127-128-139-140-
154-155-168>170-030800
...LOCATIONS ACROSS WEST CENTRAL TEXAS...

CITY           SKY/WX    TMP DP  RH WIND       PRES   REMARKS
SAN ANGELO     CLEAR     81  60  48 S7        29.92S
ABILENE        CLEAR     81  59  47 SE14      29.92R
DYESS AFB      NOT AVBL
JUNCTION       CLEAR     81  58  45 CALM      29.93S
SWEETWATER     NOT AVBL
BROWNWOOD      NOT AVBL
COLEMAN        NOT AVBL
SONORA         NOT AVBL
OZONA          NOT AVBL
BRADY          NOT AVBL
$$

TEXAS PANHANDLE/OKLAHOMA PANHANDLE

CITY           SKY/WX    TMP DP  RH WIND       PRES   REMARKS
AMARILLO       TSTM      67  64  90 NE8       30.09S
BORGER         LGT RAIN  71  62  73 S16G28    29.99F
CANADIAN       NOT AVBL
DALHART        LGT RAIN  71  65  81 S7        30.10R
DUMAS          NOT AVBL
GUYMON         NOT AVBL
HEREFORD       NOT AVBL
PAMPA          NOT AVBL
PERRYTON       NOT AVBL
$$

SOUTHERN PANHANDLE/SOUTH PLAINS/ROLLING PLAINS

CITY           SKY/WX    TMP DP  RH WIND       PRES   REMARKS
LUBBOCK        MOCLDY    75  62  64 S7        30.00R
SNYDER         NOT AVBL
CHILDRESS      CLOUDY    77  67  71 S7        29.92S
SEMINOLE       NOT AVBL
$$

PERMIAN BASIN

CITY           SKY/WX    TMP DP  RH WIND       PRES   REMARKS
MIDLAND        MOCLDY    82  63  52 E5        29.96F
ODESSA         MOCLDY    79  66  64 SE5       29.97F
WINK           MOCLDY    80  64  58 SE8       29.94F
$$

FAR WEST/SOUTHWEST MOUNTAINS/TRANS PECOS

CITY           SKY/WX    TMP DP  RH WIND       PRES   REMARKS
ALPINE         NOT AVBL
DRYDEN           N/A     85  58  39 SE8       29.93S
EL PASO        CLOUDY    73  64  73 N10       30.02F
FORT STOCKTON  CLEAR     81  58  45 S14       29.97S
GUADALUPE PASS LGT RAIN  70  57  63 N22       30.16S
MARFA          NOT AVBL
PECOS          NOT AVBL
$$

DALLAS/FORT WORTH METROPLEX

CITY           SKY/WX    TMP DP  RH WIND       PRES   REMARKS
DFW AIRPORT    PTCLDY    80  59  48 SE6       29.88S
FTW MEACHAM    CLEAR     84  56  38 SE3       29.88S
DAL-EXECUTIVE  CLEAR     77  59  53 SE3       29.89S
GRAND PRAIRIE  NOT AVBL
ADDISON        NOT AVBL
MESQUITE       NOT AVBL
LANCASTER      NOT AVBL
$$

NORTH CENTRAL TEXAS

CITY           SKY/WX    TMP DP  RH WIND       PRES   REMARKS
SHRMAN/DENISON NOT AVBL
GAINESVILLE    NOT AVBL
BRIDGEPORT     NOT AVBL
DENTON         CLEAR     79  61  53 CALM      29.89S
WAXAHACHIE     NOT AVBL
GRANBURY       NOT AVBL
$$

WESTERN NORTH TEXAS

CITY           SKY/WX    TMP DP  RH WIND       PRES   REMARKS
WICHITA FALLS  MOCLDY    75  66  73 SE7       29.89S
VERNON         NOT AVBL
BRECKENRIDGE   NOT AVBL
COMANCHE       NOT AVBL
$$

CENTRAL AND SOUTH CENTRAL TEXAS

CITY           SKY/WX    TMP DP  RH WIND       PRES   REMARKS
AUSTIN/BERGSTM CLEAR     76  69  79 S3        29.88F
WACO           CLEAR     76  61  59 E5        29.87F
HILLSBORO      NOT AVBL
TEMPLE         NOT AVBL
KILLEEN-GRAY   NOT AVBL
FORT HOOD      NOT AVBL
GEORGETOWN     NOT AVBL
LAGO VISTA     NOT AVBL
SAN MARCOS     NOT AVBL
NEW BRAUNFELS  CLEAR     76  67  73 S5        29.88F
RANDOLPH AFB   NOT AVBL
SAN ANTONIO    CLEAR     81  67  62 S8        29.90F
STINSON        CLEAR     78  67  68 SE5       29.87F
PLEASANTON     NOT AVBL
LA GRANGE      NOT AVBL
GIDDINGS       NOT AVBL
$$

EAST TEXAS

CITY           SKY/WX    TMP DP  RH WIND       PRES   REMARKS
PARIS          NOT AVBL
CLARKSVILLE    NOT AVBL
TYLER          CLEAR     77  63  61 CALM      29.90S
LONGVIEW       CLEAR     75  65  70 CALM      29.89S
PALESTINE      NOT AVBL
NACOGDOCHES    NOT AVBL
$$

TEXAS HILL COUNTRY AND EDWARDS PLATEAU

CITY           SKY/WX    TMP DP  RH WIND       PRES   REMARKS
LLANO          NOT AVBL
HORSESHOE BAY  NOT AVBL
KERRVILLE      NOT AVBL
FREDERICKSBRG  NOT AVBL
ROCKSPRINGS    NOT AVBL
HONDO          CLEAR     75  66  73 CALM      29.91S
UVALDE         NOT AVBL
DEL RIO        CLEAR     83  61  47 SE8       29.87S
$$

SOUTHEAST TEXAS

CITY           SKY/WX    TMP DP  RH WIND       PRES   REMARKS
COLLEGE STN    CLEAR     78  69  73 CALM      29.89S
CALDWELL       NOT AVBL
CROCKETT       NOT AVBL
BRENHAM        NOT AVBL
HUNTSVILLE     CLEAR     79  66  64 SW5       29.89S
CONROE         CLEAR     72  66  81 CALM      29.89F
HOUSTON BUSH   CLEAR     77  71  82 CALM      29.87F
HOUSTON HOBBY  CLEAR     80  70  71 W3        29.86S
PERLAND        CLEAR     79  71  76 CALM      29.88S
WHARTON        NOT AVBL
$$

THE UPPER TEXAS COAST

CITY           SKY/WX    TMP DP  RH WIND       PRES   REMARKS
ORANGE         NOT AVBL
PORT ARTHUR    CLEAR     76  71  85 CALM      29.86F
GALVESTON      CLEAR     83  74  74 CALM      29.87S
ANGLETON       CLEAR     74  72  93 CALM      29.87S
BAY CITY       NOT AVBL
$$

TEXAS COASTAL BEND, RIO GRANDE PLAINS DEEP SOUTH TEXAS

CITY           SKY/WX    TMP DP  RH WIND       PRES   REMARKS
VICTORIA       CLEAR     76  73  91 SE5       29.88S
BEEVILLE       NOT AVBL
ROCKPORT       CLEAR     81  75  82 SW3       29.86S
PORT ARANSAS   NOT AVBL
PORT LAVACA    SUNNY     77  73  88 S3        29.87F
CORPUS CHRISTI PTCLDY    78  73  84 SW5       29.87S
KINGSVILLE NAS NOT AVBL
COTULLA        CLEAR     79  70  74 S6        29.87S
LAREDO         NOT AVBL
BROWNSVILLE    CLEAR     78  75  90 S5        29.87F
PORT ISABEL    CLEAR     79  76  90 S5        29.86F
HEBBRONVILLE   NOT AVBL
MCALLEN        PTCLDY    82  75  79 SE6       29.87F
WESLACO        NOT AVBL
FALFURRIAS     NOT AVBL
EDINBURG       NOT AVBL
$$



USA.gov is the U.S. government's official web portal to all federal, state and local government web resources and services.